Tracking 31027 objects as of 19-Jul-2025
HD Live streaming from Space Station
objects crossing your sky now

COSMOS 2251 DEB

Track COSMOS 2251 DEB now!
10-day predictions


NORAD ID: 35993
Int'l Code: 1993-036AWK
Perigee: 667.6 km
Apogee: 708.5 km
Inclination: 74.0 °
Period: 98.4 minutes
Semi major axis: 7059 km
RCS: 0.0057 m2 (small)
Launch date: June 16, 1993
Source: Commonwealth of Independent States (former USSR) (CIS)
Launch site: PLESETSK MISSILE AND SPACE COMPLEX (PKMTR)

Note: This is SATELLITE DEBRIS
Your satellite tracking list
NUSAT-20 (GRACE)
Track 1 satellite(s)




NASA's NSSDC Master Catalog

Two Line Element Set (TLE):
1 35993U 93036AWK 25199.82841377  .00002099  00000-0  40562-3 0  9996
2 35993  74.0151 255.5078 0028925 117.7038 242.7070 14.63802252841877
Source of the keplerian elements: AFSPC